Sigonella/Catani, Italy

5:27 PM CET on December 07, 2016 (GMT +0100)
Sigonella Mil

Weather History for LICZ - October, 2013

Change the Weather History Date:

Saturday, October 26, 2013

  Actual Average Record
Temperature  
Mean Temperature 68 °F -  
Max Temperature 80 °F 74 °F 91 °F (2016)
Min Temperature 56 °F 55 °F 44 °F (1996)
Cooling Degree Days 3    
Growing Degree Days 18 (Base 50)    
Moisture  
Dew Point 63 °F    
Average Humidity 88    
Maximum Humidity 100    
Minimum Humidity 48    
Precipitation  
Precipitation 0.00 in - - ()
Sea Level Pressure  
Sea Level Pressure 30.20 in    
Wind  
Wind Speed 4 mph ()    
Max Wind Speed 12 mph    
Max Gust Speed -    
Visibility 5.4 miles    
Events      
Averages and records for this station are not official NWS values.
T = Trace of Precipitation, MM = Missing Value Source: Averaged Metar Reports

Daily Weather History Graph

Daily Weather History Graph

Search for Another Location

Airport or City:

Trip Planner

Search our weather history database for the weather conditions in past years. The results will help you decide how hot, cold, wet, or windy it might be!

Date:

Astronomy

Oct. 26, 2013 Rise Set
Actual Time 7:18 AM CEST 6:09 PM CEST
Civil Twilight 6:52 AM CEST 6:35 PM CEST
Nautical Twilight 6:21 AM CEST 7:06 PM CEST
Astronomical Twilight 5:51 AM CEST 7:36 PM CEST
Moon No Moon Rise 1:23 PM CEST (10/26)
Length of Visible Light 11h 43m
Length of Day
10h 50m
Waning Gibbous, 55% of the Moon is Illuminated
Oct 26
Waning Gibbous
Oct 27
Last Quarter
Nov 3
New
Nov 10
First Quarter
Nov 17
Full

Hourly Weather History & Observations

Time (CEST) Temp. Dew Point Humidity Pressure Visibility Wind Dir Wind Speed Gust Speed Precip Events Conditions
12:55 AM 62.6 °F 62.6 °F 100% 30.18 in - WNW 3.5 mph - N/A   Clear
1:55 AM 62.6 °F 62.6 °F 100% 30.18 in - WNW 4.6 mph - N/A   Clear
2:00 AM 63 °F 63 °F 100% 30.20 in 6 mi WNW 4.6 mph - -  
2:55 AM 62.6 °F 62.6 °F 100% 30.18 in - WNW 4.6 mph - N/A   Clear
3:55 AM 57.2 °F 57.2 °F 100% 30.18 in - WSW 4.6 mph - N/A   Clear
4:55 AM 57.2 °F 57.2 °F 100% 30.18 in - WSW 4.6 mph - N/A   Clear
5:00 AM 57 °F 57 °F 99% 30.19 in 6 mi WSW 4.6 mph - -  
5:55 AM 57.2 °F 57.2 °F 100% 30.18 in - WSW 3.5 mph - N/A   Clear
6:55 AM 57.2 °F 57.2 °F 100% 30.18 in - West 5.8 mph - N/A   Clear
7:55 AM 57.2 °F 57.2 °F 100% 30.18 in 5.0 mi WNW 5.8 mph - N/A   Unknown
8:00 AM 57 °F 57 °F 100% 30.20 in 4 mi WNW 5.8 mph - -   Mist
8:55 AM 62.6 °F 62.6 °F 100% 30.21 in 3.7 mi West 5.8 mph - N/A   Unknown
9:55 AM 68.0 °F 64.4 °F 88% 30.21 in 3.7 mi West 3.5 mph - N/A   Unknown
10:55 AM 73.4 °F 66.2 °F 78% 30.21 in 3.7 mi NNW 3.5 mph - N/A   Partly Cloudy
11:00 AM 73 °F 67 °F 76% 30.22 in 4 mi NNW 3.5 mph - -   Mist
11:55 AM 77.0 °F 64.4 °F 65% 30.21 in 5.0 mi NNW 2.3 mph - N/A   Partly Cloudy
12:55 PM 78.8 °F 60.8 °F 54% 30.18 in 5.0 mi ESE 4.6 mph - N/A   Scattered Clouds
1:55 PM 77.0 °F 60.8 °F 57% 30.18 in 5.0 mi East 8.1 mph - N/A   Scattered Clouds
2:00 PM 77 °F 61 °F 48% 30.19 in 5 mi East 8.1 mph - -   Mist
2:55 PM 78.8 °F 64.4 °F 61% 30.18 in 6.2 mi East 8.1 mph - N/A   Scattered Clouds
3:55 PM 77.0 °F 66.2 °F 69% 30.18 in 6.2 mi East 11.5 mph - N/A   Scattered Clouds
4:55 PM 75.2 °F 66.2 °F 73% 30.18 in - East 10.4 mph - N/A   Clear
5:00 PM 75 °F 66 °F 68% 30.18 in 6 mi East 10.4 mph - -  
5:55 PM 73.4 °F 69.8 °F 88% 30.18 in - ESE 8.1 mph - N/A   Clear
6:55 PM 68.0 °F 68.0 °F 100% 30.18 in - ESE 4.6 mph - N/A   Clear
7:55 PM 66.2 °F 66.2 °F 100% 30.18 in - East 2.3 mph - N/A   Clear
8:00 PM 67 °F 67 °F 100% 30.20 in 6 mi East 2.3 mph - -  
8:55 PM 68.0 °F 68.0 °F 100% 30.21 in 6.2 mi NE 2.3 mph - N/A   Partly Cloudy
9:55 PM 62.6 °F 62.6 °F 100% 30.24 in 6.2 mi Calm Calm - N/A   Partly Cloudy
10:55 PM 60.8 °F 60.8 °F 100% 30.24 in - West 3.5 mph - N/A   Clear
11:00 PM 60 °F 60 °F 100% 30.25 in 9 mi West 3.5 mph - -  
11:55 PM 59.0 °F 59.0 °F 100% 30.24 in - West 4.6 mph - N/A   Clear